Wind_Speed
59 61 65 63 67 70 69 65 63 61 59 60 59 59 58 59 59 59 61 62 62 60 57 52 47 42 40 39 37 32 30 33 32 35 38 33 28 36 34 34 41 36 33 34
61 59 61 65 68 64 61 59 58 57 59 59 59 59 59 57 57 58 58 57 55 55 52 47 40 36 38 36 33 30 28 27 26 28 28 39 30 34 36 39 42 35 33 33
57 60 65 66 60 58 57 57 59 59 58 58 57 56 55 55 57 57 55 52 49 48 42 38 34 32 34 33 30 30 27 22 20 19 23 33 42 36 27 42 42 36 37 35
61 64 62 57 55 55 56 57 59 59 59 58 56 54 54 54 55 53 50 48 47 44 40 33 29 29 28 28 27 26 28 22 15 12 10 13 20 40 33 30 37 37 39 38
63 59 52 51 53 54 56 58 59 59 57 56 55 54 53 53 52 49 45 43 43 42 40 35 29 27 26 24 21 21 20 17 10 8 21 20 15 14 30 30 30 37 44 38
54 49 49 51 52 55 58 60 59 57 57 55 53 53 52 51 49 45 42 39 39 38 37 36 34 32 31 26 20 19 15 10 8 11 12 18 19 17 20 25 27 26 42 48
47 47 47 50 54 58 60 60 58 57 55 54 54 53 50 47 45 42 39 37 36 36 36 36 34 31 25 23 21 17 12 8 8 8 9 8 10 10 8 12 16 22 19 31
45 44 47 52 56 59 60 62 60 57 54 53 52 50 47 45 42 39 36 34 33 32 31 31 29 24 21 20 17 14 16 12 7 7 8 9 10 7 8 10 8 8 12 18
42 45 50 54 58 60 62 62 60 56 53 51 49 46 43 41 38 37 34 32 30 30 28 26 23 20 21 23 24 23 23 18 8 5 4 4 7 8 8 8 7 7 10 13
44 50 53 56 60 62 62 62 58 54 52 49 46 42 42 39 36 33 31 30 28 26 25 23 19 18 17 16 16 18 17 14 12 9 7 3 3 3 4 6 9 9 10 11
48 52 54 58 62 62 61 59 56 54 51 48 44 44 41 38 35 32 30 27 25 25 22 20 19 18 17 17 16 15 14 14 13 14 8 7 7 5 2 0 5 6 6 7
50 52 55 59 61 60 58 56 55 53 52 48 44 41 40 38 35 32 29 27 25 22 21 20 18 17 17 16 15 15 14 14 14 12 11 9 7 5 3 2 3 5 6 8
50 52 55 59 59 57 56 56 56 56 52 46 43 40 38 37 33 30 26 24 23 21 19 18 18 18 17 17 16 16 16 15 13 12 11 10 10 9 9 9 9 10 12 12
52 53 55 57 57 56 56 57 56 55 49 44 41 40 38 34 31 27 25 22 21 21 20 20 21 19 19 18 19 18 15 16 15 15 15 16 13 14 14 15 15 17 18 18
54 52 54 56 56 56 56 56 55 52 48 44 43 40 35 31 28 25 23 22 22 22 22 23 23 21 22 21 21 17 16 15 14 14 15 15 16 17 17 20 20 20 21 23
51 51 52 55 57 56 55 55 53 51 46 43 40 39 33 30 27 23 22 21 21 22 24 23 22 22 21 19 19 20 21 21 18 16 16 17 17 19 19 19 23 23 25 26
50 50 53 55 57 58 56 54 54 50 43 41 41 40 37 32 29 24 20 20 23 26 26 23 23 23 21 18 16 18 19 21 22 23 20 20 22 20 21 20 21 23 25 26
49 49 53 56 58 56 55 55 51 45 41 42 42 39 34 30 28 25 22 22 24 24 24 22 21 19 18 17 19 20 19 19 20 21 22 22 21 22 22 22 21 20 21 23
47 50 54 55 55 53 53 52 46 44 42 43 42 38 35 31 27 24 22 20 21 20 20 19 19 21 21 22 21 21 22 22 21 23 24 24 25 26 27 27 28 28 28 29
49 52 54 54 56 56 51 52 52 47 45 43 42 40 36 33 29 26 22 20 17 16 19 21 21 21 22 24 26 26 28 29 29 28 27 27 28 30 32 34 35 35 36 36
51 53 54 56 58 57 60 57 55 55 49 44 42 41 38 35 30 26 23 21 18 20 22 23 24 24 26 28 30 34 35 37 38 39 40 41 42 43 42 42 43 44 45 45
52 53 54 56 62 64 63 62 59 56 50 44 41 41 40 36 30 26 24 22 23 24 24 26 29 32 34 35 36 38 40 42 43 45 46 47 48 50 51 51 52 53 54 54
53 52 54 59 65 65 65 60 56 52 50 46 42 39 37 34 31 28 27 26 27 28 31 33 36 37 39 41 43 44 46 48 50 51 52 54 55 56 57 57 58 57 57 57
51 51 57 62 66 64 60 55 53 52 49 46 45 41 36 34 32 31 34 34 36 37 38 39 41 43 45 47 50 52 53 56 57 58 58 57 56 54 53 52 51 50 49 49
49 55 59 61 63 62 58 54 52 50 49 48 45 40 40 41 39 38 36 36 36 38 41 43 45 48 51 54 57 58 58 57 55 54 52 52 52 51 50 49 48 47 45 45
52 55 58 60 63 60 57 54 51 49 48 47 45 44 46 46 43 42 40 39 40 40 42 46 51 55 59 60 60 58 53 52 53 54 54 53 51 48 46 46 46 45 44 42
53 54 57 60 62 63 62 58 54 51 49 48 46 46 47 46 43 41 41 42 43 45 48 54 60 63 64 61 54 51 52 55 56 56 54 52 50 48 46 43 41 40 39 39
Wind_Direction
317 318 319 317 315 317 322 326 327 327 327 327 327 328 325 324 323 321 322 322 323 323 322 321 320 319 316 313 310 304 288 282 273 259 249 241 246 249 251 260 261 241 246 251
320 320 318 318 319 326 328 328 328 327 327 327 326 325 324 323 322 322 321 322 323 323 325 325 325 324 320 318 316 308 298 291 279 261 250 235 244 248 246 253 250 245 252 256
321 319 321 323 328 330 329 329 327 326 327 326 326 324 322 322 324 323 323 324 326 329 331 329 330 331 326 321 321 315 313 306 285 264 241 236 236 239 258 245 231 248 249 259
321 323 326 330 331 331 329 328 328 329 329 328 327 326 326 325 324 324 325 326 329 334 337 335 336 337 333 326 326 320 316 319 307 251 243 248 251 244 238 247 238 238 250 248
325 329 331 332 330 330 330 331 332 331 331 330 329 328 326 324 324 326 327 329 332 336 340 342 344 346 341 333 325 322 327 314 322 257 244 261 276 248 237 250 257 259 245 242
330 331 333 331 332 335 334 335 334 334 333 331 329 328 326 325 327 329 330 331 334 339 343 347 351 349 343 339 337 327 331 324 308 259 248 248 260 266 259 260 254 264 240 239
332 333 332 336 338 337 338 338 337 336 333 332 331 329 328 329 331 332 334 337 339 341 346 350 348 344 339 342 347 347 333 335 321 311 285 261 246 250 246 249 246 253 240 236
333 334 338 339 340 340 340 339 338 336 335 333 332 330 332 333 333 335 337 339 340 347 349 342 343 336 340 348 357 9 357 352 340 318 297 283 279 269 238 227 226 214 234 239
333 338 338 340 342 342 342 339 337 338 336 334 333 334 334 334 336 337 338 340 344 346 347 344 336 343 1 4 4 10 11 11 11 354 318 301 279 284 268 238 218 250 232 228
337 337 339 342 344 344 341 339 339 339 339 338 337 336 335 336 338 340 340 343 346 342 346 338 344 359 8 11 12 17 13 21 35 31 22 34 333 332 300 255 244 264 245 239
337 338 342 344 345 344 341 340 341 341 342 342 341 339 339 340 340 342 345 346 342 346 343 347 357 5 4 4 4 3 11 20 28 33 40 53 47 50 356 74 271 290 292 281
339 342 345 347 345 344 342 343 345 346 348 346 344 341 342 342 343 345 345 346 348 348 349 354 2 3 1 0 354 357 5 11 14 12 21 19 18 7 1 326 275 266 261 263
342 346 348 346 347 346 347 348 350 350 350 348 346 344 344 343 343 343 347 347 350 350 354 2 3 8 3 358 357 1 357 355 355 351 341 337 329 321 310 298 289 284 282 279
347 349 347 348 349 351 352 351 350 352 350 350 350 349 345 344 343 344 345 349 351 354 358 5 11 6 4 2 1 357 352 348 343 338 334 326 318 309 300 293 290 289 285 281
349 347 348 351 355 356 355 352 354 352 354 353 353 350 347 345 345 345 347 350 352 356 358 7 7 8 8 7 359 352 354 352 342 335 326 319 311 305 303 300 295 290 285 284
349 348 349 357 359 359 356 355 354 354 357 355 354 352 353 352 353 351 350 350 352 358 359 2 2 5 3 360 357 354 349 349 349 344 332 323 316 309 305 300 297 294 291 288
349 349 356 0 1 1 359 357 357 355 357 358 357 359 357 354 355 355 355 356 356 359 4 3 4 4 0 360 358 1 358 350 344 345 347 338 330 326 320 315 305 300 294 290
350 355 0 3 3 3 1 0 357 356 360 360 1 2 359 357 355 358 1 358 355 358 360 360 359 353 354 0 3 359 356 356 351 343 339 336 333 329 326 322 318 314 306 302
358 1 3 4 5 4 5 0 1 3 4 4 4 4 6 5 4 5 5 0 356 356 356 358 353 351 350 351 353 348 345 344 345 340 334 331 327 322 318 315 312 310 307 304
4 4 5 3 6 6 4 6 7 8 9 9 6 7 8 7 8 6 5 2 1 355 355 351 348 350 352 349 345 345 342 335 330 327 320 315 313 311 309 307 304 301 298 296
7 5 5 5 7 5 8 8 9 11 10 9 8 10 9 8 10 7 7 3 0 360 1 354 355 351 349 345 343 336 331 327 324 322 319 317 314 311 307 304 301 298 296 293
6 6 4 6 6 8 8 10 10 10 10 8 9 10 10 7 7 5 4 1 4 2 353 353 349 345 341 338 333 328 325 323 320 318 315 312 310 307 303 300 297 295 292 290
5 3 5 7 9 11 11 9 10 9 9 9 9 10 10 8 9 10 7 9 6 358 357 352 347 343 338 333 330 328 325 322 319 317 314 312 309 307 304 301 298 295 292 289
3 5 10 11 11 12 11 9 8 9 9 9 10 9 6 8 9 10 11 5 2 354 351 348 345 341 338 334 330 328 326 324 322 318 316 315 314 312 309 307 305 302 299 296
6 12 13 12 12 12 12 10 9 8 8 9 11 8 6 7 9 10 7 4 357 353 349 345 343 340 337 335 333 330 327 325 325 326 325 322 320 317 315 312 309 305 303 301
14 14 13 13 13 13 12 12 11 9 9 10 10 8 9 8 7 7 4 1 358 355 348 344 343 341 338 336 335 334 335 335 334 331 329 327 325 323 320 316 313 310 307 303
16 15 14 13 12 12 13 12 11 10 10 11 10 10 12 8 6 1 1 360 357 355 353 348 343 343 341 340 342 343 342 339 339 336 335 333 331 330 327 323 319 315 310 306
Height
5692 5682 5673 5662 5651 5638 5623 5612 5601 5588 5577 5567 5555 5543 5534 5525 5511 5500 5487 5476 5465 5454 5444 5436 5425 5416 5408 5402 5397 5395 5393 5390 5392 5395 5400 5407 5409 5412 5415 5418 5423 5428 5431 5435
5681 5671 5661 5650 5639 5625 5614 5603 5593 5582 5571 5559 5548 5535 5523 5514 5504 5492 5481 5470 5459 5447 5436 5426 5417 5410 5400 5394 5390 5386 5382 5380 5381 5385 5389 5393 5396 5401 5404 5409 5412 5415 5421 5425
5671 5660 5649 5637 5625 5615 5605 5595 5583 5574 5563 5551 5540 5528 5517 5503 5492 5481 5471 5461 5452 5441 5429 5419 5412 5405 5396 5389 5384 5378 5374 5372 5372 5375 5378 5380 5385 5390 5394 5399 5403 5406 5411 5416
5662 5649 5637 5626 5617 5608 5598 5587 5575 5563 5550 5539 5528 5517 5505 5494 5483 5474 5462 5451 5442 5434 5425 5417 5408 5401 5394 5385 5379 5374 5371 5368 5366 5368 5370 5373 5377 5380 5385 5389 5393 5397 5402 5406
5651 5640 5629 5620 5612 5600 5590 5577 5566 5552 5540 5530 5517 5506 5496 5486 5476 5467 5456 5446 5436 5427 5418 5410 5403 5397 5391 5385 5378 5372 5368 5365 5364 5364 5365 5367 5369 5372 5377 5381 5384 5387 5391 5397
5642 5633 5624 5615 5604 5592 5580 5567 5556 5543 5530 5520 5511 5500 5489 5478 5468 5460 5450 5441 5432 5423 5415 5406 5399 5392 5386 5382 5376 5370 5367 5364 5363 5363 5363 5363 5366 5367 5370 5373 5374 5377 5380 5386
5637 5628 5619 5608 5597 5585 5571 5558 5546 5534 5522 5511 5499 5490 5481 5470 5461 5452 5443 5434 5427 5420 5411 5403 5397 5391 5385 5379 5374 5369 5365 5364 5362 5361 5361 5362 5362 5363 5364 5366 5367 5370 5371 5375
5631 5622 5612 5602 5589 5576 5563 5550 5537 5526 5514 5503 5493 5482 5470 5461 5454 5446 5437 5431 5424 5416 5409 5403 5397 5392 5387 5379 5375 5370 5365 5362 5361 5361 5360 5361 5362 5362 5362 5363 5365 5365 5366 5369
5627 5616 5606 5594 5582 5569 5556 5543 5532 5519 5507 5497 5486 5476 5466 5457 5446 5439 5433 5427 5419 5414 5408 5403 5398 5391 5384 5378 5372 5369 5366 5363 5362 5360 5360 5360 5360 5360 5360 5360 5362 5363 5363 5365
5622 5611 5600 5588 5575 5562 5550 5536 5523 5511 5500 5489 5479 5469 5460 5451 5444 5438 5431 5424 5417 5413 5407 5402 5396 5391 5386 5382 5379 5374 5371 5367 5363 5361 5361 5360 5360 5359 5359 5360 5362 5359 5360 5360
5616 5606 5593 5582 5569 5557 5545 5531 5516 5504 5492 5482 5471 5462 5454 5446 5440 5433 5427 5422 5416 5410 5405 5400 5394 5389 5386 5383 5380 5377 5373 5370 5366 5364 5363 5362 5361 5360 5361 5360 5359 5359 5358 5358
5612 5599 5587 5575 5564 5553 5540 5523 5510 5497 5487 5476 5467 5458 5450 5442 5435 5429 5424 5419 5413 5408 5403 5398 5393 5389 5386 5383 5380 5376 5374 5371 5369 5368 5365 5363 5362 5361 5360 5359 5359 5358 5358 5357
5606 5594 5581 5570 5560 5548 5531 5517 5503 5491 5480 5471 5463 5454 5447 5439 5432 5427 5423 5418 5412 5407 5402 5398 5394 5390 5386 5383 5380 5377 5374 5372 5370 5368 5366 5364 5362 5361 5359 5358 5357 5356 5354 5353
5601 5589 5578 5567 5556 5539 5525 5512 5500 5488 5478 5469 5461 5451 5443 5436 5430 5425 5420 5416 5411 5407 5402 5398 5393 5389 5386 5382 5379 5376 5374 5371 5368 5366 5364 5361 5360 5358 5356 5355 5353 5351 5349 5348
5597 5587 5576 5566 5548 5533 5521 5509 5496 5486 5477 5467 5458 5450 5442 5435 5429 5424 5419 5414 5409 5405 5401 5396 5392 5389 5385 5381 5378 5376 5372 5369 5367 5364 5361 5359 5357 5354 5352 5349 5347 5345 5343 5340
5595 5585 5575 5560 5544 5531 5519 5507 5496 5485 5475 5466 5457 5448 5441 5434 5428 5422 5417 5413 5409 5406 5401 5396 5392 5389 5385 5381 5377 5373 5369 5366 5363 5361 5358 5355 5352 5349 5347 5344 5340 5338 5335 5332
5593 5584 5570 5555 5542 5529 5518 5506 5493 5483 5475 5465 5456 5447 5438 5431 5426 5421 5416 5413 5409 5405 5400 5396 5392 5389 5386 5382 5379 5374 5370 5365 5361 5357 5355 5351 5346 5343 5340 5337 5334 5330 5327 5324
5592 5580 5567 5553 5541 5528 5516 5503 5493 5484 5474 5464 5454 5447 5440 5432 5426 5421 5415 5412 5408 5404 5400 5397 5393 5390 5385 5381 5376 5373 5369 5365 5360 5356 5351 5347 5343 5338 5334 5330 5327 5324 5319 5315
5589 5578 5566 5554 5543 5531 5518 5507 5497 5483 5474 5462 5454 5447 5441 5433 5427 5421 5416 5412 5409 5405 5401 5397 5394 5389 5384 5380 5376 5371 5366 5362 5358 5353 5348 5343 5338 5333 5328 5323 5318 5314 5310 5305
5587 5577 5567 5556 5544 5531 5522 5508 5494 5484 5473 5463 5455 5447 5440 5434 5427 5421 5418 5413 5409 5405 5402 5398 5393 5388 5383 5378 5372 5367 5362 5357 5352 5348 5344 5338 5332 5326 5320 5314 5308 5303 5298 5294
5587 5577 5566 5555 5542 5531 5515 5504 5494 5479 5472 5464 5457 5449 5441 5434 5429 5423 5419 5414 5410 5406 5402 5397 5391 5386 5381 5375 5369 5363 5357 5350 5343 5336 5330 5323 5316 5310 5306 5300 5294 5288 5282 5277
5588 5577 5567 5556 5541 5526 5515 5500 5489 5481 5473 5466 5458 5450 5442 5436 5430 5425 5420 5416 5411 5405 5401 5395 5389 5383 5376 5370 5365 5358 5350 5342 5335 5326 5318 5311 5303 5295 5288 5282 5275 5269 5262 5256
5587 5579 5566 5552 5540 5526 5511 5503 5494 5487 5478 5468 5460 5452 5445 5439 5432 5426 5421 5415 5410 5406 5399 5393 5386 5379 5373 5365 5356 5349 5339 5330 5321 5313 5303 5294 5286 5277 5267 5259 5251 5245 5239 5232
5590 5578 5563 5551 5537 5526 5517 5507 5498 5488 5479 5470 5461 5453 5448 5440 5433 5426 5418 5413 5406 5400 5394 5388 5381 5372 5364 5355 5345 5335 5326 5315 5305 5294 5285 5275 5265 5256 5246 5237 5229 5222 5215 5209
5590 5575 5564 5553 5542 5531 5521 5511 5500 5491 5483 5473 5464 5457 5449 5439 5432 5423 5417 5412 5406 5398 5390 5382 5374 5365 5355 5345 5334 5322 5310 5299 5288 5277 5267 5257 5247 5238 5228 5219 5210 5203 5197 5190
5588 5577 5568 5558 5546 5536 5525 5514 5505 5495 5486 5477 5468 5459 5448 5438 5429 5423 5416 5410 5402 5396 5387 5378 5367 5357 5345 5333 5320 5308 5296 5285 5275 5264 5252 5241 5230 5221 5212 5202 5192 5185 5179 5173
5590 5580 5571 5560 5550 5539 5527 5516 5506 5496 5488 5478 5468 5459 5449 5441 5431 5424 5416 5408 5401 5393 5384 5372 5357 5345 5333 5321 5310 5298 5287 5276 5263 5251 5239 5228 5217 5206 5197 5188 5180 5171 5164 5157